SKYSAT-C6 (42992 NORAD) Tracking and Keplerian Element Data

This shows tracking and keplerian element data for the satellite.

Feedback or suggestion? Click here.




ElementValue
Catalog42992
NameSKYSAT-C6
Epoch Orbit5724
Epoch Day316.52240927
Epoch Year2018
RAAN68.5592
Inclination97.4165
Eccentricity0.0012628
Argument of Perigee29.2334
Mean Anonmoly84.4841
Mean Motion15.2152619
Decay Rate7.74E-06
L11 42992U 17068F 18316.52240927 .00000774 00000-0 37404-4 0 9998
L22 42992 97.4165 68.5592 0012628 29.2334 84.4841 15.21526190 57246

Live tracking and technical data element details for SKYSAT-C6 (NORAD 42992). SKYSAT-C6 can be tracked NOW for your location showing map with azimuth and elevation plus other details from your city location.

Track the satellite on the map from your city or location and see movement details for azimuth, elevation, latitude, longitude, range, height, and movement on the map or in text.







IsCatalogInMostPopularTable: catalog: 42992, numindb: 148
Update: records affected: 1



GetName: 42992 SKYSAT-C6

Hit Count: updated at: Mon, 12 Nov 2018 18:13:39 GMT